TimeCST,TemperatureF,Dew PointF,Humidity,Sea Level PressureIn,VisibilityMPH,Wind Direction,Wind SpeedMPH,Gust SpeedMPH,PrecipitationIn,Events,Conditions,WindDirDegrees,DateUTC
12:53 AM,64.0,55.0,73,29.99,10.0,SSE,8.1,-,N/A,,Mostly Cloudy,150,2012-11-11 06:53:00
1:53 AM,63.0,55.9,78,29.98,10.0,South,11.5,21.9,N/A,,Partly Cloudy,180,2012-11-11 07:53:00
2:53 AM,63.0,55.9,78,29.98,10.0,South,11.5,19.6,N/A,,Mostly Cloudy,170,2012-11-11 08:53:00
3:53 AM,63.0,55.9,78,29.96,10.0,South,15.0,23.0,N/A,,Mostly Cloudy,180,2012-11-11 09:53:00
4:53 AM,64.0,57.0,78,29.96,10.0,South,9.2,23.0,N/A,,Mostly Cloudy,170,2012-11-11 10:53:00
5:53 AM,64.0,57.0,78,29.97,10.0,SSE,15.0,23.0,N/A,,Mostly Cloudy,160,2012-11-11 11:53:00
6:53 AM,63.0,57.0,81,29.99,10.0,SSE,11.5,18.4,N/A,,Mostly Cloudy,160,2012-11-11 12:53:00
7:17 AM,62.6,57.2,82,30.01,10.0,SSE,11.5,20.7,0.00,,Overcast,150,2012-11-11 13:17:00
7:41 AM,64.4,57.2,77,30.01,10.0,SSE,15.0,18.4,0.00,,Overcast,150,2012-11-11 13:41:00
7:53 AM,64.0,57.0,78,30.01,10.0,South,10.4,17.3,0.00,,Overcast,170,2012-11-11 13:53:00
8:53 AM,64.4,57.2,77,30.01,10.0,SE,10.4,19.6,N/A,,Overcast,140,2012-11-11 14:53:00
9:53 AM,64.9,57.0,75,29.97,10.0,SSE,11.5,19.6,N/A,,Overcast,160,2012-11-11 15:53:00
10:32 AM,66.2,57.2,73,29.97,9.0,South,15.0,25.3,0.00,Rain,Light Rain,170,2012-11-11 16:32:00
10:53 AM,64.0,60.1,87,29.95,8.0,SSE,9.2,21.9,0.01,Rain,Light Rain,160,2012-11-11 16:53:00
11:26 AM,64.4,60.8,88,29.96,5.0,SSE,11.5,17.3,0.00,Rain,Light Rain,160,2012-11-11 17:26:00
11:50 AM,64.4,60.8,88,29.94,5.0,SE,9.2,18.4,0.01,Rain,Light Rain,140,2012-11-11 17:50:00
11:53 AM,64.0,61.0,90,29.93,8.0,Variable,6.9,-,0.01,Rain,Light Rain,0,2012-11-11 17:53:00
12:35 PM,64.4,62.6,94,29.91,8.0,SSE,6.9,-,0.01,Rain,Light Rain,150,2012-11-11 18:35:00
12:53 PM,66.0,62.1,87,29.89,10.0,SE,6.9,-,0.01,,Overcast,140,2012-11-11 18:53:00
1:36 PM,66.2,62.6,88,29.88,4.0,South,9.2,24.2,0.01,Rain,Light Rain,170,2012-11-11 19:36:00
1:53 PM,66.0,62.1,87,29.87,5.0,South,6.9,20.7,0.04,Rain,Rain,180,2012-11-11 19:53:00
2:05 PM,66.2,62.6,88,29.88,5.0,South,9.2,17.3,0.02,Rain-Thunderstorm,Thunderstorms and Rain,180,2012-11-11 20:05:00
2:20 PM,66.2,62.6,88,29.88,6.0,South,11.5,17.3,0.04,Rain,Rain,170,2012-11-11 20:20:00
2:28 PM,66.2,62.6,88,29.89,2.5,SSE,8.1,17.3,0.05,Rain,Light Rain,160,2012-11-11 20:28:00
2:36 PM,66.2,62.6,88,29.89,5.0,South,6.9,-,0.05,Rain-Thunderstorm,Light Rain,170,2012-11-11 20:36:00
2:53 PM,66.9,62.1,84,29.87,10.0,South,6.9,-,0.05,Rain-Thunderstorm,Light Rain,170,2012-11-11 20:53:00
3:06 PM,66.2,62.6,88,29.91,1.8,WSW,8.1,-,0.16,Rain-Thunderstorm,Heavy Thunderstorms and Rain,250,2012-11-11 21:06:00
3:31 PM,64.4,60.8,88,29.89,4.0,South,6.9,-,0.49,Rain-Thunderstorm,Heavy Thunderstorms and Rain,180,2012-11-11 21:31:00
3:53 PM,66.0,61.0,84,29.88,10.0,SSW,15.0,26.5,0.52,Rain-Thunderstorm,Light Rain,210,2012-11-11 21:53:00
4:02 PM,60.8,57.2,88,29.92,5.0,NW,18.4,29.9,0.03,Rain-Thunderstorm,Heavy Rain,320,2012-11-11 22:02:00
4:10 PM,55.4,51.8,88,29.94,4.0,NW,10.4,29.9,0.06,Rain-Thunderstorm,Thunderstorms and Rain,320,2012-11-11 22:10:00
4:42 PM,53.6,51.8,94,29.97,1.8,WNW,9.2,-,0.20,Rain-Thunderstorm,Heavy Rain,300,2012-11-11 22:42:00
4:50 PM,53.6,51.8,94,29.98,2.5,WNW,9.2,-,0.23,Rain,Rain,300,2012-11-11 22:50:00
4:53 PM,54.0,52.0,93,29.98,2.5,Variable,6.9,-,0.25,Rain,Heavy Rain,0,2012-11-11 22:53:00
5:12 PM,53.6,51.8,94,29.99,5.0,NW,5.8,-,0.04,Rain,Rain,310,2012-11-11 23:12:00
5:17 PM,53.6,51.8,94,29.99,2.5,WNW,5.8,-,0.06,Rain,Rain,300,2012-11-11 23:17:00
5:29 PM,53.6,51.8,94,30.01,6.0,NW,5.8,-,0.07,Rain,Light Rain,310,2012-11-11 23:29:00
5:53 PM,54.0,52.0,93,30.00,5.0,NNW,6.9,-,0.08,Rain,Rain,340,2012-11-11 23:53:00
6:14 PM,53.6,50.0,88,30.01,10.0,NNW,8.1,-,0.01,Rain-Thunderstorm,Light Rain,330,2012-11-12 00:14:00
6:29 PM,53.6,50.0,88,30.02,10.0,Calm,Calm,-,0.01,Rain,Light Rain,0,2012-11-12 00:29:00
6:37 PM,53.6,48.2,82,30.01,1.8,Calm,Calm,-,0.10,Rain,Heavy Rain,0,2012-11-12 00:37:00
6:46 PM,53.6,50.0,88,30.03,4.0,WSW,3.5,-,0.11,Rain,Light Rain,250,2012-11-12 00:46:00
6:53 PM,53.1,50.0,89,30.02,5.0,Calm,Calm,-,0.12,Rain,Rain,0,2012-11-12 00:53:00
7:53 PM,53.1,51.1,93,30.05,7.0,Calm,Calm,-,0.08,Rain,Light Rain,0,2012-11-12 01:53:00
8:53 PM,53.1,51.1,93,30.06,10.0,Calm,Calm,-,0.02,Rain,Light Rain,0,2012-11-12 02:53:00
9:33 PM,53.6,51.8,94,30.09,10.0,Calm,Calm,-,0.00,,Overcast,0,2012-11-12 03:33:00
9:53 PM,53.1,51.1,93,30.12,10.0,WSW,4.6,-,0.00,Rain,Light Rain,250,2012-11-12 03:53:00
10:20 PM,53.6,51.8,94,30.13,10.0,WSW,5.8,-,0.00,,Overcast,250,2012-11-12 04:20:00
10:45 PM,53.6,50.0,88,30.13,10.0,NW,10.4,-,0.00,,Overcast,310,2012-11-12 04:45:00
10:53 PM,51.1,48.0,89,30.14,10.0,WNW,8.1,18.4,0.00,,Overcast,300,2012-11-12 04:53:00
11:36 PM,48.2,44.6,87,30.16,10.0,WNW,8.1,-,N/A,,Overcast,290,2012-11-12 05:36:00
11:53 PM,48.0,44.1,86,30.18,10.0,WNW,8.1,17.3,N/A,,Overcast,290,2012-11-12 05:53:00